Tampa, FL

11:40 AM EST on February 24, 2018 (GMT -0500)
Tampa International

Weather History for KTPA - August, 2014

Change the Weather History Date:

Friday, August 1, 2014

  Actual Average Record
Temperature  
Mean Temperature 85 °F 83 °F  
Max Temperature 93 °F 90 °F 95 °F (1961)
Min Temperature 77 °F 76 °F 69 °F (1916)
Degree Days  
Heating Degree Days 0 0  
Month to date heating degree days 0 0  
Since 1 June heating degree days 0 0  
Since 1 July heating degree days 0 0  
Cooling Degree Days 20 18  
Month to date cooling degree days 20 18  
Year to date cooling degree days 1933 1969  
Since 1 June cooling degree days 1110 1092  
Growing Degree Days 35 (Base 50)    
Moisture  
Dew Point 69 °F    
Average Humidity 61    
Maximum Humidity 74    
Minimum Humidity 47    
Precipitation  
Precipitation 0.00 in 0.24 in 3.89 in (2015)
Month to date precipitation 0.00 0.24  
Year to date precipitation 33.78 26.19  
Sea Level Pressure  
Sea Level Pressure 29.98 in    
Wind  
Wind Speed 5 mph (WNW)    
Max Wind Speed 15 mph    
Max Gust Speed 24 mph    
Visibility 10 miles    
Events      
T = Trace of Precipitation, MM = Missing Value Source: NWS Daily Summary

Daily Weather History Graph

Daily Weather History Graph

Search for Another Location

Airport or City:

Trip Planner

Search our weather history database for the weather conditions in past years. The results will help you decide how hot, cold, wet, or windy it might be!

Date:

Astronomy

Aug. 01, 2014 Rise Set
Actual Time 6:52 AM EDT 8:19 PM EDT
Civil Twilight 6:27 AM EDT 8:45 PM EDT
Nautical Twilight 5:57 AM EDT 9:15 PM EDT
Astronomical Twilight 5:25 AM EDT 9:46 PM EDT
Moon 11:44 AM EDT (8/1) 11:37 PM EDT (8/1)
Length of Visible Light 14h 17m
Length of Day
13h 27m
Waxing Crescent, 27% of the Moon is Illuminated
Aug 1
Waxing Crescent
Aug 3
First Quarter
Aug 10
Full
Aug 17
Last Quarter
Aug 25
New

Hourly Weather History & Observations

Time (EDT) Temp. Heat Index Dew Point Humidity Pressure Visibility Wind Dir Wind Speed Gust Speed Precip Events Conditions
12:53 AM 79.0 °F - 70.0 °F 74% 29.99 in 10.0 mi Calm Calm - N/A   Partly Cloudy
1:53 AM 80.1 °F 82.9 °F 69.1 °F 69% 29.98 in 10.0 mi Calm Calm - N/A   Mostly Cloudy
2:53 AM 81.0 °F 83.3 °F 66.9 °F 62% 29.96 in 10.0 mi Calm Calm - N/A   Mostly Cloudy
3:53 AM 80.1 °F 82.7 °F 68.0 °F 67% 29.95 in 10.0 mi Calm Calm - N/A   Mostly Cloudy
4:53 AM 79.0 °F - 66.9 °F 66% 29.94 in 10.0 mi Calm Calm - N/A   Partly Cloudy
5:53 AM 78.1 °F - 69.1 °F 74% 29.96 in 10.0 mi Calm Calm - N/A   Partly Cloudy
6:53 AM 79.0 °F - 69.1 °F 72% 29.98 in 10.0 mi Calm Calm - N/A   Scattered Clouds
7:53 AM 81.0 °F 84.1 °F 69.1 °F 67% 29.99 in 10.0 mi Calm Calm - N/A   Partly Cloudy
8:53 AM 84.0 °F 87.0 °F 68.0 °F 58% 30.00 in 10.0 mi Calm Calm - N/A   Partly Cloudy
9:53 AM 84.9 °F 88.2 °F 68.0 °F 57% 30.00 in 10.0 mi Calm Calm - N/A   Scattered Clouds
10:53 AM 84.9 °F 89.4 °F 70.0 °F 61% 30.01 in 10.0 mi Variable 4.6 mph - N/A   Scattered Clouds
11:53 AM 87.1 °F 91.3 °F 69.1 °F 55% 30.01 in 10.0 mi WSW 5.8 mph - N/A   Scattered Clouds
12:53 PM 88.0 °F 92.9 °F 70.0 °F 55% 29.99 in 10.0 mi WSW 8.1 mph - N/A   Mostly Cloudy
1:53 PM 87.8 °F 92.6 °F 69.8 °F 55% 29.99 in 10.0 mi SW 8.1 mph - N/A   Mostly Cloudy
2:53 PM 90.0 °F 95.4 °F 70.0 °F 52% 29.98 in 10.0 mi West 8.1 mph - N/A   Mostly Cloudy
3:53 PM 91.0 °F 95.6 °F 69.1 °F 48% 29.96 in 10.0 mi WNW 9.2 mph - N/A   Mostly Cloudy
4:53 PM 91.0 °F 95.2 °F 68.0 °F 47% 29.95 in 10.0 mi WNW 11.5 mph 20.7 mph N/A   Mostly Cloudy
5:53 PM 89.6 °F 92.2 °F 66.2 °F 46% 29.93 in 10.0 mi NW 9.2 mph - N/A   Overcast
6:53 PM 88.0 °F 90.3 °F 66.0 °F 48% 29.94 in 10.0 mi NW 10.4 mph - N/A   Mostly Cloudy
7:53 PM 84.9 °F 87.6 °F 66.9 °F 55% 29.96 in 10.0 mi NNW 11.5 mph - N/A   Mostly Cloudy
8:53 PM 82.9 °F 85.8 °F 68.0 °F 60% 29.97 in 10.0 mi NW 6.9 mph - N/A   Partly Cloudy
9:53 PM 82.0 °F 85.9 °F 70.0 °F 67% 29.98 in 10.0 mi North 6.9 mph - N/A   Scattered Clouds
10:53 PM 82.9 °F 87.0 °F 70.0 °F 65% 30.00 in 10.0 mi NE 5.8 mph - N/A   Mostly Cloudy
11:53 PM 82.9 °F 86.5 °F 69.1 °F 63% 30.00 in 10.0 mi Variable 3.5 mph - N/A   Mostly Cloudy